Tracking 28920 objects as of 26-May-2024
HD Live streaming from Space Station
objects crossing your sky now

STARLINK-31546

Track STARLINK-31546 now!
10-day predictions


NORAD ID: 59470
Int'l Code: 2024-068R
Perigee: 450.1 km
Apogee: 452.2 km
Inclination: 43.0 °
Period: 93.5 minutes
Semi major axis: 6822 km
RCS: Unknown
Launch date: April 10, 2024
Source: United States (US)
Launch site: AIR FORCE EASTERN TEST RANGE (AFETR)
Your satellite tracking list
Your tracking list is empty




NASA's NSSDC Master Catalog

Two Line Element Set (TLE):
1 59470U 24068R   24147.30994903  .00005137  00000-0  13012-3 0  9996
2 59470  42.9981 148.7667 0001567 264.1527  95.9151 15.40706469  8409
Source of the keplerian elements: AFSPC